Date,TemperatureHighF,TemperatureAvgF,TemperatureLowF,DewpointHighF,DewpointAvgF,DewpointLowF,HumidityHigh,HumidityAvg,HumidityLow,PressureMaxIn,PressureMinIn,WindSpeedMaxMPH,WindSpeedAvgMPH,GustSpeedMaxMPH,PrecipitationSumIn
2013-9-1,104.6,89.3,78.3,73.3,66.9,56.2,67,50,25,29.85,29.74,11,3,19,0.00
2013-9-2,94.4,85.3,78.3,74.5,70.0,61.0,84,62,45,29.97,29.84,9,4,13,0.00
2013-9-3,93.8,81.9,69.9,65.1,61.8,58.4,75,53,31,30.01,29.89,8,5,10,0.00
2013-9-4,94.9,83.9,72.6,70.7,64.9,61.7,75,55,36,30.06,29.96,8,4,12,0.00
2013-9-5,95.5,84.2,73.2,68.9,63.7,60.8,68,52,33,30.10,29.99,7,3,10,0.00
2013-9-6,96.5,84.7,72.4,67.5,63.0,60.8,68,50,32,30.07,29.92,6,3,11,0.00
2013-9-7,97.5,86.5,75.2,68.7,65.1,62.8,68,51,35,29.99,29.87,11,3,15,0.00
2013-9-8,95.6,84.9,72.6,69.9,64.8,59.7,80,54,32,29.95,29.84,9,4,14,0.00
2013-9-9,92.7,83.8,73.9,69.5,63.7,57.9,74,53,32,29.97,29.87,11,5,17,0.00
2013-9-10,91.9,82.7,74.1,69.5,63.6,55.2,77,55,34,30.08,29.93,11,5,17,0.00
2013-9-11,92.9,82.7,72.0,69.6,63.5,57.0,69,53,40,30.12,29.98,8,3,16,0.00
2013-9-12,93.9,82.6,73.2,69.9,67.3,65.5,80,61,41,30.06,29.93,9,3,14,0.00
2013-9-13,91.5,80.9,73.6,70.1,68.4,64.1,83,67,41,29.98,29.85,14,4,18,0.00
2013-9-14,87.9,78.5,69.8,68.9,62.0,55.0,85,59,42,29.99,29.88,10,5,14,0.00
2013-9-15,92.2,81.1,69.1,69.2,62.9,54.7,64,55,43,30.02,29.92,8,4,13,0.00
2013-9-16,91.4,83.2,74.1,68.2,65.0,62.6,70,55,40,30.09,29.95,8,3,11,0.00
2013-9-17,93.2,81.5,74.2,69.8,65.4,60.4,72,59,36,30.05,29.93,8,3,12,0.01
2013-9-18,93.0,84.2,77.3,69.6,66.9,63.6,73,58,39,29.98,29.84,12,5,16,0.00
2013-9-19,90.5,81.7,71.1,70.9,67.7,64.9,91,64,45,29.95,29.85,11,5,18,0.01
2013-9-20,72.6,69.9,64.0,69.4,66.4,57.4,96,89,78,29.97,29.88,9,5,13,0.21
2013-9-21,81.2,69.2,57.8,57.3,49.0,38.4,85,54,23,30.02,29.89,10,5,18,0.00
2013-9-22,81.8,70.3,57.3,52.6,50.3,45.2,78,51,28,29.95,29.80,7,3,10,0.00
2013-9-23,82.8,70.8,58.6,54.9,52.5,50.8,79,55,34,29.87,29.73,10,4,14,0.00
2013-9-24,89.3,75.9,62.2,59.2,49.6,41.0,77,45,20,29.94,29.83,10,3,14,0.00
2013-9-25,90.9,72.1,61.6,55.5,48.8,44.5,59,45,23,29.90,29.77,5,2,10,0.00